Tracking 20626 objects as of 8-Apr-2020
HD Live streaming from Space Station
objects crossing your sky now

IUS R/B(2)

Track IUS R/B(2) now!


NORAD ID: 23615
Int'l Code: 1995-035D
Perigee: 35,683.8 km
Apogee: 35,770.5 km
Inclination: 17.0 °
Period: 1,432.7 minutes
Semi major axis: 42098 km
RCS: 5.3271 m2 (large)
Launch date: July 13, 1995
Source: United States (US)
Launch site: AIR FORCE EASTERN TEST RANGE (AFETR)

Note: This is a ROCKET BODY
aabbcc
Your satellite tracking list
Your tracking list is empty




NASA's NSSDC Master Catalog

Two Line Element Set (TLE):
1 23615U 95035D   20099.21924562 -.00000212  00000-0  00000+0 0  9995
2 23615  16.9565   2.8961 0010290  85.0157  91.9164  1.00509747 90805
Source of the keplerian elements: AFSPC